Location: Ida Center
(41.8662°N, 83.5713°W)
Time: 08:13:53
(UTC+00:00)

Cosmos 2369 - Pass Details

Date: 17 November 2019
Orbit: 838 x 858 km, 71.0° (Epoch: 15 December)

Event Time Altitude Azimuth Distance (km) Brightness Sun altitude
Rises 23:32:44 0° 208° (SSW) 3,382 7.4 -15.0°
Reaches altitude 10° 23:35:10 10° 210° (SSW) 2,454 6.7 -15.5°
Maximum altitude 23:40:48 74° 295° (WNW) 882 3.9 -16.5°
Drops below altitude 10° 23:46:30 10° 21° (NNE) 2,483 5.8 -17.6°
Enters shadow 23:47:10 - 21° (NNE) 2,735 6.1 -17.7°
